Location: Newark
(22.3060°N, 114.2134°E)
Time: 07:37:46
(UTC+00:00)

Vanguard 2 - Pass Details

Date: 12 August 2021
Orbit: 553 x 2937 km, 32.9° (Epoch: 24 September)

Event Time Altitude Azimuth Distance (km) Brightness Sun altitude
Rises 14:58:16 0° 234° (SW) 5,635 11.9 -46.9°
Enters shadow 15:01:20 - 233° (SW) 4,667 11.4 -47.3°
Reaches altitude 10° 15:02:37 10° 232° (SW) 4,250 - -47.4°
Maximum altitude 15:13:04 67° 153° (SSE) 1,325 - -48.6°
Drops below altitude 10° 15:19:12 10° 71° (ENE) 2,572 - -49.3°
Sets 15:21:15 0° 68° (ENE) 3,313 - -49.5°
